Temperature
19 17 17 17 18 18 18 18 18 18 18 17 16 16 16 16 15 15 15 16 16 16 16 16 16 16 16 16 16 15 15 15 15 15 15 15 15 15 14 14 14 14 14 14
17 17 18 18 18 18 18 18 18 18 18 17 16 16 16 15 15 15 15 16 16 16 16 16 16 16 16 16 16 15 15 15 15 15 15 15 15 14 14 14 14 14 14 14
18 18 19 19 18 18 18 18 18 18 17 17 17 16 16 15 15 15 15 16 16 16 16 16 16 16 16 16 15 15 15 15 15 15 15 15 14 14 14 14 14 14 14 14
18 18 19 19 18 18 18 18 18 18 17 16 17 15 16 15 14 14 15 15 16 16 16 16 16 16 16 15 15 15 15 15 14 14 14 14 14 14 14 14 14 14 14 13
18 18 19 19 19 19 18 18 18 17 16 15 15 15 15 14 14 14 14 15 16 16 16 16 16 16 16 15 15 15 15 14 14 14 14 14 14 14 14 14 14 14 13 13
18 18 19 19 19 19 18 17 16 14 14 15 15 15 15 13 14 15 15 15 16 16 16 16 16 16 15 15 15 15 14 14 14 14 14 14 14 14 14 14 14 14 13 13
17 18 18 19 18 18 17 16 15 15 14 15 15 15 14 15 15 15 15 15 16 16 15 15 15 15 15 15 15 15 14 14 14 14 14 14 14 14 14 14 13 13 13 13
16 16 18 18 18 17 17 16 15 15 15 14 15 14 15 15 15 16 16 16 16 16 15 15 15 15 15 15 15 15 14 14 14 14 14 14 13 13 13 13 13 13 13 13
15 16 18 18 18 17 16 15 15 14 14 14 14 14 14 15 14 14 15 15 15 15 15 15 15 15 15 15 15 14 14 14 14 14 13 13 13 13 13 13 13 13 13 12
15 15 16 17 17 17 16 14 13 14 14 14 15 14 14 14 14 14 13 14 15 15 15 15 15 15 15 15 15 14 14 14 14 13 13 13 13 13 13 13 13 13 12 12
15 15 15 16 17 16 16 15 13 12 13 13 14 14 15 14 14 13 13 14 14 15 15 15 15 15 15 14 14 14 14 14 13 13 13 13 13 13 12 12 12 12 12 12
13 13 14 15 16 16 16 15 13 14 13 12 12 13 14 13 13 13 13 14 14 14 15 15 15 14 14 14 14 14 13 13 13 13 13 13 12 12 12 12 12 12 12 12
13 13 13 14 15 15 15 14 14 13 12 11 12 14 13 12 12 13 13 13 14 14 14 14 14 14 14 13 13 13 13 13 13 12 12 12 12 12 12 12 12 11 11 11
13 12 13 14 14 14 14 14 13 13 12 12 12 13 12 12 11 12 12 13 13 13 13 13 13 13 13 13 13 13 13 13 12 12 12 12 12 12 12 11 11 11 11 11
13 13 13 13 13 14 14 14 13 13 12 12 13 12 12 11 11 12 12 12 12 12 12 12 13 13 13 13 13 12 12 12 12 12 12 12 11 11 11 11 11 11 11 11
11 12 13 13 14 13 13 13 13 13 12 12 12 12 11 11 12 11 11 12 11 12 12 12 12 12 12 12 12 12 12 12 12 11 11 11 11 11 11 11 11 10 10 10
10 11 12 12 13 13 13 12 12 12 12 12 12 12 11 10 11 11 11 11 11 11 12 12 12 12 12 12 12 12 12 11 11 11 11 11 11 11 10 10 10 10 10 10
10 10 9 11 13 13 12 12 12 12 12 11 11 11 10 11 12 12 12 11 11 11 11 12 12 12 12 12 12 11 11 11 11 11 11 10 10 10 10 10 10 10 10 10
9 10 9 10 11 11 12 12 11 12 12 11 10 10 10 11 11 11 12 12 12 11 11 12 12 12 12 11 11 11 11 11 11 11 10 10 10 10 9 9 9 9 9 9
8 9 9 9 11 12 12 12 12 12 12 11 10 9 10 10 9 10 12 12 11 11 11 11 11 11 11 11 11 11 11 10 10 10 10 10 10 9 9 9 9 9 9 9
10 9 9 9 10 10 10 11 12 12 11 11 10 10 10 10 11 12 12 11 11 11 11 11 11 11 11 10 10 10 10 10 10 10 10 9 9 9 9 9 8 8 8 8
9 9 8 8 9 10 10 10 10 10 11 11 11 11 11 11 11 11 11 11 11 11 11 11 10 10 10 10 10 10 10 10 9 9 9 9 9 9 8 8 8 8 8 8
8 8 8 8 9 10 10 10 11 11 11 11 11 11 11 11 11 11 11 11 11 10 10 10 10 10 10 9 9 9 9 9 9 9 9 8 8 8 8 8 8 8 8 7
7 7 7 7 8 9 10 11 11 11 11 11 11 11 11 11 10 10 10 10 10 10 10 10 9 9 9 9 9 9 9 8 8 8 8 8 8 8 8 7 7 7 7 7
7 6 7 7 8 9 10 11 11 11 11 11 11 10 10 10 10 10 10 10 9 9 9 9 9 9 9 8 8 8 8 8 8 8 8 7 7 7 7 7 7 7 7 7
6 7 7 8 9 8 10 11 11 10 10 10 10 10 10 10 10 10 9 9 9 9 9 9 8 8 8 8 8 8 8 7 7 7 7 7 7 7 7 7 7 7 7 6
Wind_Speed
3 4 4 7 7 6 5 5 3 3 2 5 4 4 4 5 5 6 6 6 5 5 3 2 3 3 3 3 3 3 3 3 3 2 2 2 2 2 3 3 4 4 4 4
4 2 5 4 5 5 5 4 2 1 1 4 3 4 3 4 6 6 7 7 6 5 2 3 3 3 4 3 3 2 2 2 2 2 1 1 1 2 2 3 5 6 5 4
5 4 4 5 5 5 4 7 6 3 2 2 1 3 2 2 2 3 4 4 5 6 6 5 4 4 4 4 4 4 3 3 2 3 3 3 3 3 3 4 3 4 4 5
3 3 4 4 5 6 5 6 6 5 3 2 2 3 5 3 2 4 5 5 5 5 5 5 5 5 5 5 4 4 3 3 2 3 4 4 2 1 0 1 1 3 4 4
3 2 4 5 6 6 5 3 4 3 3 1 0 2 6 1 4 6 7 7 6 6 6 6 6 7 5 4 4 4 3 3 2 3 4 4 2 1 1 1 2 3 3 4
2 1 2 3 2 4 5 6 5 5 4 2 4 4 6 4 6 6 6 6 6 6 6 5 5 4 3 3 4 4 4 3 2 3 3 4 3 2 2 1 1 1 2 2
3 3 1 2 3 2 6 5 2 2 1 5 2 4 7 5 5 6 6 6 5 5 5 4 4 4 4 4 4 4 4 3 3 3 3 3 3 3 3 2 1 0 1 1
1 4 2 1 4 5 4 7 6 5 4 4 1 6 6 4 2 3 4 4 4 5 5 5 5 6 5 5 5 5 5 3 3 3 3 2 2 2 2 2 1 1 1 1
4 5 3 1 1 7 5 4 5 5 2 1 5 5 6 1 2 1 1 3 4 5 5 5 5 5 5 5 5 5 5 4 3 3 2 2 1 1 1 1 1 1 1 0
4 3 3 2 3 3 4 8 6 5 4 3 4 4 4 4 4 2 2 3 4 4 4 4 5 5 5 5 4 4 4 5 4 3 3 3 2 2 2 1 1 1 1 0
3 3 3 2 2 3 4 4 5 5 5 5 3 6 4 5 5 5 4 4 4 4 5 5 5 5 4 3 3 4 3 2 2 3 3 2 2 2 2 2 2 2 1 1
2 3 1 4 4 2 3 5 6 5 4 4 4 6 3 2 3 3 3 2 2 3 3 3 4 3 3 3 3 3 3 3 2 2 2 2 2 2 2 1 2 1 1 1
3 4 2 4 4 2 2 2 3 5 5 5 4 5 3 4 2 0 1 1 1 2 2 2 3 3 3 3 3 3 3 3 2 2 2 2 1 1 2 2 2 1 1 1
4 3 5 6 5 3 2 2 3 5 4 5 6 6 4 4 3 2 1 1 2 2 2 2 2 2 3 3 3 3 2 2 2 2 2 2 1 2 2 2 1 1 1 1
4 2 3 4 3 2 2 3 3 5 6 6 6 5 5 5 4 2 0 2 2 2 1 1 2 3 2 2 2 2 2 2 2 2 2 2 1 1 1 1 1 1 1 1
3 2 1 1 0 1 1 3 3 4 4 4 3 5 4 1 1 1 1 2 1 1 1 1 2 2 3 3 3 3 2 2 3 3 2 2 1 1 0 1 1 1 1 1
2 3 2 2 2 2 3 4 4 3 3 5 6 6 1 0 2 3 3 2 2 2 2 2 2 3 3 4 4 3 3 2 2 2 2 2 2 1 1 1 0 1 1 1
4 3 2 1 1 3 5 1 3 3 2 2 2 2 3 3 3 2 2 3 2 2 2 2 1 2 2 3 2 2 2 3 3 2 1 1 2 2 1 1 1 1 1 1
3 5 3 2 2 4 5 2 2 4 3 2 2 1 1 1 3 2 1 2 3 3 3 3 2 2 2 2 2 3 2 2 2 2 3 2 2 2 2 2 2 2 1 2
5 4 4 3 2 4 4 4 1 3 3 2 1 1 1 4 1 4 2 1 1 1 1 1 1 2 2 1 2 3 3 2 3 4 3 3 2 3 3 3 3 2 2 2
3 3 3 3 3 5 5 4 2 3 4 3 1 2 3 4 4 2 0 0 1 0 1 1 2 2 2 2 3 3 2 3 4 3 2 2 2 3 4 3 2 2 2 2
3 3 3 3 3 5 3 3 3 4 2 1 1 2 2 1 1 1 1 1 1 1 1 2 2 1 1 2 3 2 2 3 2 2 1 1 2 2 2 2 2 2 1 1
4 4 4 5 5 3 1 2 1 1 1 1 1 0 2 1 1 1 0 1 1 1 1 1 2 1 1 1 3 2 2 1 1 1 1 1 1 1 1 2 2 2 2 2
2 1 2 2 4 3 3 2 2 1 0 0 0 1 2 1 0 0 0 0 0 1 1 1 2 2 1 1 1 2 2 1 1 1 1 1 1 2 1 2 2 2 2 3
3 3 2 3 4 3 3 2 2 1 2 2 2 1 1 2 0 1 1 1 1 0 1 1 2 2 2 1 1 1 1 1 1 1 1 1 1 2 2 2 2 3 3 4
4 5 5 6 6 4 5 4 1 0 0 0 1 1 1 1 1 1 1 1 1 1 1 1 1 1 1 1 1 1 1 1 1 1 1 1 1 1 1 2 3 4 4 5
Wind_Direction
72 100 177 203 191 177 158 153 179 221 178 144 192 218 229 193 186 196 200 199 206 219 223 187 167 152 131 117 116 125 116 108 96 71 64 55 33 22 27 36 45 54 71 85
68 193 213 192 169 151 154 162 197 295 121 165 206 248 247 200 201 202 201 204 206 211 201 183 172 156 155 155 145 137 136 125 114 97 89 94 78 44 31 23 39 44 55 67
175 219 183 161 160 157 182 187 196 184 68 56 110 310 275 246 205 203 201 200 199 198 198 193 186 180 168 171 176 172 164 146 127 104 83 59 48 36 26 19 18 19 44 58
202 228 165 158 183 166 211 204 178 163 139 249 165 260 277 240 232 222 218 209 211 207 194 188 187 187 190 193 185 171 161 149 135 122 114 112 109 105 292 345 10 14 34 47
224 185 169 192 204 177 192 143 138 148 147 84 33 195 278 245 239 242 227 218 216 205 193 194 196 196 192 182 176 169 153 145 136 137 139 131 119 129 88 54 52 30 24 37
235 274 197 194 170 155 131 86 68 59 84 245 234 192 269 229 221 233 226 218 211 200 197 199 195 178 171 167 165 161 155 155 148 151 148 147 148 141 112 68 55 22 16 19
345 322 289 146 113 83 110 103 56 4 354 250 231 206 249 249 229 215 217 216 204 190 186 187 178 177 176 175 177 174 169 170 170 161 161 171 172 166 169 175 182 179 7 348
161 277 257 161 166 167 160 149 163 195 216 264 248 231 252 260 258 214 206 200 181 179 183 189 190 189 188 185 183 180 182 183 183 180 188 181 168 171 192 193 188 211 237 248
176 250 297 252 165 140 142 164 156 137 156 228 266 282 295 292 16 43 165 163 178 189 189 190 189 187 187 186 189 186 184 188 193 191 187 183 177 173 186 187 172 191 232 274
153 230 295 317 81 47 138 142 111 132 165 239 277 266 251 245 238 244 232 217 216 196 191 188 189 190 191 191 188 180 180 189 194 188 191 195 195 196 184 152 163 188 226 304
135 163 308 3 165 171 115 114 122 131 158 167 247 269 237 220 213 217 231 223 208 202 198 194 193 191 185 175 169 173 176 172 182 192 195 180 185 183 156 162 190 195 209 209
120 121 251 272 282 221 159 163 150 160 206 176 184 265 311 231 208 202 225 211 183 187 192 187 181 172 166 168 174 180 181 181 190 186 175 178 173 158 156 193 214 201 201 226
133 113 50 342 343 14 99 144 149 132 129 160 180 257 347 19 29 41 198 185 157 159 149 149 152 163 174 178 181 182 184 185 178 161 153 149 157 167 191 215 218 206 197 206
111 126 176 206 229 220 234 209 166 144 167 200 217 244 302 329 328 333 348 151 139 131 133 143 167 183 187 182 182 184 191 180 173 158 148 147 177 202 217 220 204 194 187 190
98 159 209 238 245 202 224 229 192 193 191 195 225 229 256 251 246 250 186 83 86 91 105 178 196 200 196 180 175 183 193 187 179 159 160 195 208 203 195 214 216 200 191 209
79 144 140 286 295 171 271 271 211 219 205 210 237 262 270 259 131 133 153 126 129 220 228 234 218 200 194 193 188 192 197 197 178 172 188 198 190 179 176 226 226 215 215 219
110 134 135 254 306 29 285 253 207 198 189 182 218 243 224 124 194 196 191 186 206 236 240 232 229 216 211 201 191 189 193 181 177 187 193 194 194 200 219 231 234 246 244 228
139 123 137 190 55 233 244 274 181 182 218 201 229 248 206 215 209 181 172 188 219 244 246 240 227 224 217 195 181 175 166 170 175 185 206 217 207 219 236 221 224 249 242 226
138 137 127 135 200 274 295 283 174 185 262 244 222 289 292 73 53 358 283 215 219 225 227 221 209 197 180 179 172 144 158 182 184 205 217 225 213 216 222 231 239 240 235 248
63 89 115 130 178 241 269 309 279 134 291 314 152 175 131 104 107 273 276 256 257 258 222 182 153 128 139 170 154 138 161 182 225 236 231 222 215 216 224 232 236 244 231 241
51 63 118 161 217 263 285 309 97 146 263 296 181 173 158 170 213 247 130 205 169 132 138 127 128 138 165 156 144 146 176 216 235 237 227 222 222 225 229 234 238 238 239 250
166 160 177 153 196 263 305 106 158 220 273 215 173 170 169 196 326 28 76 96 99 89 102 119 124 139 151 149 148 160 215 238 235 215 212 231 240 243 250 228 243 242 227 242
194 191 186 190 212 263 248 197 260 110 158 219 177 198 147 127 0 5 49 104 102 126 135 123 136 139 131 166 167 184 240 239 204 194 243 271 268 265 244 223 234 248 234 236
272 153 156 239 264 276 283 316 352 19 285 307 97 119 133 157 219 298 160 86 92 83 123 126 125 138 203 244 219 214 229 202 165 184 252 276 269 281 275 254 233 229 238 244
223 165 181 251 277 310 297 280 299 350 36 52 44 71 151 150 211 222 220 219 198 160 113 135 160 182 213 225 235 244 223 168 167 201 258 275 267 260 273 273 250 244 243 240
202 185 188 225 227 211 251 263 250 110 326 111 62 14 360 172 219 262 241 222 179 172 135 135 169 194 214 205 234 254 227 176 171 220 259 259 271 281 282 292 307 293 276 285
Height
1496 1502 1507 1506 1505 1507 1511 1517 1519 1517 1514 1517 1521 1521 1520 1520 1520 1521 1522 1523 1524 1525 1527 1529 1530 1531 1531 1532 1533 1534 1534 1535 1535 1535 1535 1535 1535 1536 1536 1536 1536 1536 1536 1536
1502 1504 1500 1500 1503 1506 1511 1517 1519 1516 1514 1518 1521 1521 1519 1518 1518 1519 1520 1521 1522 1524 1526 1527 1529 1530 1531 1532 1533 1534 1534 1535 1535 1536 1536 1536 1536 1536 1537 1537 1537 1537 1537 1537
1501 1500 1497 1500 1504 1508 1511 1515 1516 1517 1517 1518 1521 1524 1520 1518 1517 1518 1518 1519 1520 1522 1524 1525 1527 1529 1530 1531 1532 1533 1534 1535 1536 1536 1537 1537 1537 1537 1537 1537 1537 1537 1537 1537
1498 1496 1497 1500 1504 1506 1513 1508 1510 1514 1522 1528 1525 1535 1522 1518 1517 1516 1516 1517 1518 1520 1522 1523 1525 1527 1528 1530 1531 1533 1534 1535 1536 1536 1536 1537 1537 1537 1537 1537 1537 1537 1537 1537
1498 1496 1497 1500 1501 1501 1506 1505 1510 1514 1521 1529 1528 1533 1527 1519 1518 1515 1514 1514 1515 1517 1519 1521 1523 1525 1527 1529 1530 1532 1533 1534 1535 1536 1536 1537 1537 1537 1537 1537 1537 1537 1537 1537
1496 1495 1495 1496 1497 1499 1503 1509 1515 1521 1527 1535 1528 1533 1529 1521 1515 1512 1511 1511 1512 1514 1516 1519 1521 1524 1525 1527 1528 1530 1532 1533 1534 1535 1536 1536 1536 1537 1537 1537 1537 1536 1536 1536
1501 1497 1494 1494 1499 1501 1505 1518 1532 1535 1540 1537 1526 1529 1525 1511 1508 1507 1507 1508 1510 1512 1514 1517 1519 1521 1523 1525 1526 1528 1530 1531 1533 1534 1534 1535 1535 1536 1536 1536 1536 1536 1535 1535
1509 1509 1497 1495 1498 1503 1506 1513 1530 1539 1541 1536 1527 1528 1517 1507 1505 1505 1505 1507 1508 1510 1512 1514 1516 1519 1521 1523 1525 1527 1528 1530 1531 1532 1533 1534 1534 1535 1535 1535 1535 1535 1535 1535
1510 1509 1496 1494 1494 1498 1507 1513 1514 1528 1532 1536 1532 1523 1513 1505 1505 1504 1505 1505 1507 1508 1510 1512 1515 1517 1519 1521 1523 1525 1527 1528 1530 1531 1532 1532 1533 1533 1533 1534 1534 1534 1534 1534
1504 1508 1500 1496 1495 1498 1501 1508 1520 1528 1536 1538 1530 1526 1520 1509 1507 1505 1505 1505 1505 1507 1509 1511 1513 1515 1517 1519 1521 1523 1525 1527 1528 1529 1530 1530 1531 1532 1532 1532 1532 1532 1532 1532
1501 1508 1505 1500 1500 1502 1505 1510 1516 1525 1528 1536 1536 1527 1506 1505 1504 1504 1504 1504 1504 1506 1507 1509 1511 1513 1515 1518 1519 1521 1523 1524 1525 1526 1527 1528 1529 1529 1530 1530 1530 1531 1531 1531
1502 1509 1512 1505 1499 1497 1499 1505 1513 1522 1526 1530 1533 1526 1503 1502 1502 1502 1502 1503 1504 1505 1506 1508 1510 1512 1514 1516 1517 1519 1520 1522 1523 1524 1525 1526 1526 1527 1527 1528 1528 1528 1529 1528
1502 1509 1517 1512 1509 1503 1502 1504 1507 1514 1523 1531 1531 1521 1504 1502 1502 1502 1502 1502 1503 1504 1505 1507 1508 1510 1512 1513 1515 1516 1518 1519 1521 1522 1522 1523 1524 1524 1525 1525 1525 1526 1526 1526
1498 1508 1514 1516 1511 1507 1506 1505 1507 1511 1520 1525 1522 1514 1507 1505 1503 1502 1502 1502 1502 1503 1504 1506 1507 1508 1510 1511 1513 1514 1516 1517 1518 1519 1520 1520 1521 1522 1522 1523 1523 1523 1523 1523
1499 1506 1506 1505 1503 1503 1504 1504 1506 1508 1510 1515 1512 1511 1506 1504 1503 1503 1502 1502 1502 1503 1504 1505 1506 1507 1508 1509 1511 1512 1514 1515 1516 1517 1517 1518 1519 1519 1520 1520 1521 1521 1521 1521
1500 1505 1504 1505 1502 1502 1504 1503 1504 1505 1506 1508 1508 1507 1501 1501 1502 1502 1502 1502 1502 1503 1503 1504 1504 1505 1506 1507 1508 1510 1511 1513 1514 1515 1515 1516 1516 1517 1517 1518 1518 1519 1519 1519
1503 1506 1509 1510 1504 1502 1507 1503 1503 1503 1502 1503 1506 1504 1501 1500 1500 1500 1500 1501 1501 1502 1502 1502 1502 1503 1504 1505 1506 1507 1509 1511 1512 1513 1513 1514 1514 1514 1515 1515 1516 1516 1516 1516
1503 1507 1513 1513 1509 1513 1505 1498 1498 1499 1500 1500 1499 1499 1498 1498 1497 1498 1499 1499 1499 1500 1500 1501 1501 1501 1502 1503 1504 1506 1507 1508 1510 1510 1511 1511 1512 1512 1513 1513 1513 1513 1514 1513
1500 1506 1514 1516 1514 1510 1502 1497 1498 1500 1499 1498 1498 1497 1497 1497 1497 1498 1498 1498 1498 1499 1499 1499 1499 1500 1501 1502 1503 1504 1506 1507 1507 1508 1508 1509 1510 1510 1510 1510 1510 1510 1511 1510
1503 1505 1513 1517 1513 1512 1503 1496 1494 1498 1500 1496 1495 1496 1496 1497 1501 1499 1497 1496 1496 1497 1497 1498 1498 1499 1500 1501 1502 1503 1504 1504 1505 1505 1506 1507 1507 1507 1508 1508 1508 1508 1508 1508
1507 1510 1513 1515 1514 1508 1500 1496 1495 1504 1503 1495 1494 1494 1495 1496 1497 1497 1496 1495 1495 1495 1496 1496 1496 1497 1498 1499 1500 1501 1502 1502 1503 1503 1503 1504 1504 1505 1505 1505 1505 1505 1505 1505
1508 1511 1514 1516 1515 1511 1498 1497 1499 1499 1495 1494 1494 1494 1495 1495 1495 1495 1494 1494 1493 1493 1494 1494 1494 1495 1496 1497 1498 1498 1499 1500 1500 1500 1501 1501 1501 1502 1502 1502 1502 1502 1501 1501
1506 1505 1506 1507 1506 1499 1496 1495 1495 1495 1494 1494 1493 1494 1494 1494 1494 1493 1493 1493 1492 1493 1492 1493 1493 1493 1494 1495 1496 1496 1496 1497 1498 1498 1498 1498 1498 1499 1499 1499 1498 1498 1498 1497
1503 1502 1504 1504 1499 1496 1495 1495 1495 1494 1494 1493 1493 1493 1493 1493 1493 1492 1492 1492 1491 1491 1491 1491 1491 1492 1492 1493 1493 1494 1495 1495 1495 1494 1494 1495 1495 1495 1495 1495 1495 1495 1494 1494
1499 1501 1502 1501 1497 1495 1493 1493 1493 1493 1493 1493 1493 1493 1493 1492 1492 1491 1491 1491 1490 1490 1489 1490 1490 1490 1490 1491 1491 1492 1492 1492 1492 1492 1491 1492 1492 1492 1491 1491 1491 1491 1491 1490
1495 1496 1498 1496 1493 1493 1492 1491 1492 1492 1491 1492 1492 1491 1491 1492 1491 1490 1489 1489 1489 1488 1488 1488 1488 1489 1489 1489 1489 1489 1489 1489 1489 1489 1489 1488 1488 1488 1488 1487 1487 1487 1487 1487